Location: Catacaguana
(10.4120°N, 66.7591°W)
Time: 19:28:56
(UTC+00:00)

FengYun 1-2 T - Pass Details

Date: 05 February 2023
Orbit: 847 x 880 km, 98.7° (Epoch: 24 March)

Event Time Altitude Azimuth Distance (km) Brightness Sun altitude
Rises 10:22:55 0° 356° (N) 3,459 7.2 -7.1°
Reaches altitude 10° 10:25:30 10° 347° (NNW) 2,524 6.4 -6.5°
Maximum altitude 10:30:30 34° 285° (WNW) 1,417 4.9 -5.3°
Drops below altitude 10° 10:35:30 10° 222° (SW) 2,531 6.4 -4.1°
Sets 10:38:07 0° 212° (SSW) 3,469 7.2 -3.5°
